Regional Weather Roundup
Issued by NWS

Home | Current Version | Previous Version | Graphics & Text | Print | Product List | Glossary On
Versions: 1 2 3 4 5 6 7 8 9 10 11 12 13 14 15 16 17 18 19 20 21 22 23 24 25 26 27 28 29 30 31 32 33 34 35 36 37 38 39 40 41 42 43 44 45 46 47 48 49 50
000
ASUS43 KDTX 020110
RWRMI
MICHIGAN HOURLY REGIONAL WEATHER ROUNDUP
NATIONAL WEATHER SERVICE DETROIT/PONTIAC MI
900 PM EDT WED JUL 01 2015

NOTE: "FAIR" INDICATES FEW OR NO CLOUDS BELOW 12,000 FEET WITH NO
SIGNIFICANT WEATHER AND/OR OBSTRUCTION TO VISIBILITY.

MIZ047>049-052>055-059>063-066>070-074>076-081>083-020200-
SOUTHEAST LOWER MICHIGAN

CITY           SKY/WX    TMP DP  RH WIND       PRES   REMARKS
ADRIAN         MOCLDY    67  56  67 N3        29.93R
ALMA           CLOUDY    65  55  70 CALM      29.94S
ANN ARBOR      MOCLDY    65  54  67 N6        29.93R
BAD AXE        CLOUDY    61  56  82 NE8       29.95R
CARO           CLOUDY    64  57  79 CALM      29.92S
DETROIT CITY   MOCLDY    67  55  65 N6        29.92R
DETROIT        MOCLDY    67  55  65 N7        29.93R
FLINT          CLOUDY    65  58  78 CALM      29.94R
GROSSE ILE     MOCLDY    68  57  68 W3        29.91R
HILLSDALE      MOCLDY    65  55  70 CALM      29.95R
HOWELL         MOCLDY    62  56  82 CALM      29.95R

CITY           SKY/WX    TMP DP  RH WIND       PRES   REMARKS
JACKSON        MOCLDY    63  54  72 NW3       29.94R
LAMBERTVILLE   MOCLDY    69  58  69 NE3       29.93R
LANSING        CLOUDY    65  53  65 CALM      29.95R
LAPEER         FAIR      61  55  82 CALM      29.94R
MASON          CLOUDY    61  57  88 CALM      29.95R
MONROE         MOCLDY    65  57  73 CALM      29.92R
MT. CLEMENS    MOCLDY    65  58  78 N8        29.91R HAZE
PONTIAC        MOCLDY    63  54  72 NW6       29.93R
PORT HOPE        N/A     59  55  87 CALM      29.94R
PORT HURON     MOCLDY    59  57  94 N3        29.94R
TRI CITIES     CLOUDY    67  56  67 N14       29.94R
MIDLAND        FAIR      63  54  72 NW8       29.94R
TROY           MOCLDY    65  57  76 N5        29.95R
SAGINAW HB     MOCLDY    63  57  82 S5        29.93R
$$
MIZ043>046-050>051-056>058-064>065-071>073-077>080-020200-
SOUTHWEST LOWER MICHIGAN

CITY           SKY/WX    TMP DP  RH WIND       PRES   REMARKS
BATTLE CREEK   MOCLDY    63  53  70 NW7       29.96R
BENTON HARBOR  CLOUDY    57  52  83 NW5       29.98S
BIG RAPIDS     CLOUDY    60  52  73 N5        29.96S
COLDWATER      MOCLDY    63  53  72 NW5       29.95R
FREMONT        FAIR      57  54  87 N6        29.97R
HOLLAND        CLOUDY    59  52  77 NW5       29.98R
GRAND RAPIDS   MOCLDY    63  52  67 NW6       29.96R
IONIA          FAIR      64  53  68 NW3       29.94R
KALAMAZOO      MOCLDY    61  52  72 NW8       29.97R
LUDINGTON      PTCLDY    58  53  81 NW3       29.99R
MARSHALL       MOCLDY    63  54  72 NW3       29.94R
MOUNT PLEASANT MOCLDY    62  54  74 N5        29.95R
MUSKEGON       CLOUDY    60  52  74 N8        29.98R
SOUTH HAVEN    CLOUDY    57  53  85 NW3       29.98R
$$
MIZ016>042-020200-
NORTHERN LOWER MICHIGAN

CITY           SKY/WX    TMP DP  RH WIND       PRES   REMARKS
ALPENA         PTCLDY    60  51  72 VRB3      29.95R
BEAVER ISLAND  PTCLDY    57  46  65 N3        29.99R
BELLAIRE       PTCLDY    59  50  72 CALM      29.97S
CADILLAC       CLOUDY    56  51  83 NW3       29.98R
CHARLEVOIX     PTCLDY    58  50  73 N5        30.00S
FRANKFORT      CLEAR     60  47  63 CALM      29.99R
GAYLORD        PTCLDY    57  50  77 NW5       29.97R
GRAYLING       CLOUDY    58  51  79 N3        29.98R
HARBOR SPRINGS MOCLDY    58  47  67 CALM      29.97R
HOUGHTON LAKE  CLOUDY    58  52  80 N3        29.97S
MANISTEE       CLEAR    N/A N/A N/A N3        29.98S
OSCODA         MOCLDY    62  55  79 N6        29.93S
PELLSTON       PTCLDY    59  47  64 NW9       29.97R
ROGERS CITY    PTCLDY    60  52  75 NW5       29.96S
TRAVERSE CITY  PTCLDY    60  50  69 N6        29.97R
$$
MIZ007>008-015-020200-
EASTERN UPPER MICHIGAN

CITY           SKY/WX    TMP DP  RH WIND       PRES   REMARKS
KINROSS        PTCLDY    54  45  71 NW15G23   29.97S
MACKINAC ISLAN PTCLDY    58  47  67 N8        29.97R
NEWBERRY       PTCLDY    53  43  68 NW5       29.99S
S. S. MARIE    PTCLDY    53  41  63 NW9       29.97R
MUNISING         N/A     55  43  63 CALM      30.01F
$$
MIZ004>006-011>014-085-020200-
CENTRAL UPPER MICHIGAN

CITY           SKY/WX    TMP DP  RH WIND       PRES   REMARKS
MANISTIQUE     PTCLDY    56  42  57 N7        29.99S
ESCANABA       CLEAR     61  39  44 N6        30.00S
MENOMINEE      CLEAR     63  45  51 E10       29.99R
$$
MIZ001>003-009>011-084-020200-
WESTERN UPPER MICHIGAN

CITY           SKY/WX    TMP DP  RH WIND       PRES   REMARKS
IRON MOUNTAIN  CLEAR     63  44  50 NE6       30.00R
HOUGHTON       MOCLDY    59  45  59 NW3       30.01F
COPPER HARBOR    N/A     55  49  80 CALM      30.00S
IRONWOOD       CLEAR     63  48  59 CALM      29.99S
$$

ABBREVIATIONS USED IN REMARKS
   TC - TEMPERATURE IN CELSIUS
  WCI - WIND CHILL INDEX
   HX - HEAT INDEX
  VSB - VISIBILITY



USA.gov is the U.S. government's official web portal to all federal, state and local government web resources and services.